• In Latvia
  • List of Countries
  • For 7 days
  • Water Temperature
  • Satellite Maps
  • Weather Map
  • Weather Widgets
  • user-avatar
    Login

    Hourly Weather Novo-Petrovskoe

    Today, 23 September, Sunday

    Time Temperature Precipitation Wind Pressure Humidity
    00:00 +10°C° 0.8 mm 3 mps 735 mmHg 89%
    01:00 +10°C° 0.8 mm 3 mps 735 mmHg 90%
    02:00 +9°C° 0.8 mm 3 mps 735 mmHg 91%
    03:00 +9°C° 1.2 mm 3 mps 735 mmHg 92%
    04:00 +9°C° 1.2 mm 3 mps 735 mmHg 93%
    05:00 +9°C° 1.2 mm 3 mps 735 mmHg 93%
    06:00 +9°C° 0.4 mm 3 mps 735 mmHg 92%
    07:00 +9°C° 0.4 mm 3 mps 735 mmHg 91%
    08:00 +9°C° 0.4 mm 3 mps 735 mmHg 90%
    09:00 +10°C° 0 mm 4 mps 735 mmHg 85%
    10:00 +11°C° 0 mm 4 mps 735 mmHg 80%
    11:00 +12°C° 0 mm 4 mps 735 mmHg 76%
    12:00 +12°C° 0 mm 4 mps 735 mmHg 71%
    13:00 +13°C° 0 mm 4 mps 735 mmHg 67%
    14:00 +13°C° 0 mm 5 mps 735 mmHg 62%
    15:00 +13°C° 0.1 mm 4 mps 735 mmHg 67%
    16:00 +12°C° 0.1 mm 3 mps 734 mmHg 71%
    17:00 +11°C° 0.1 mm 3 mps 734 mmHg 76%
    18:00 +10°C° 0 mm 3 mps 734 mmHg 80%
    19:00 +9°C° 0 mm 3 mps 735 mmHg 83%
    20:00 +8°C° 0 mm 3 mps 735 mmHg 87%
    21:00 +8°C° 0 mm 3 mps 735 mmHg 88%
    22:00 +7°C° 0 mm 3 mps 735 mmHg 90%
    23:00 +7°C° 0 mm 3 mps 735 mmHg 91%

    Tomorrow, 24 September, Monday

    Time Temperature Precipitation Wind Pressure Humidity
    00:00 +7°C° 0 mm 3 mps 735 mmHg 92%
    01:00 +7°C° 0 mm 3 mps 735 mmHg 93%
    02:00 +5°C° 0 mm 3 mps 735 mmHg 94%
    03:00 +6°C° 0 mm 2 mps 735 mmHg 95%
    04:00 +6°C° 0 mm 2 mps 735 mmHg 95%
    05:00 +5°C° 0 mm 2 mps 735 mmHg 96%
    06:00 +6°C° 0 mm 2 mps 735 mmHg 93%
    07:00 +7°C° 0 mm 2 mps 734 mmHg 90%
    08:00 +8°C° 0 mm 2 mps 734 mmHg 86%
    09:00 +8°C° 0.4 mm 3 mps 734 mmHg 86%
    10:00 +9°C° 0.4 mm 3 mps 734 mmHg 85%
    11:00 +9°C° 0.4 mm 3 mps 733 mmHg 85%
    12:00 +9°C° 1.6 mm 3 mps 733 mmHg 88%
    13:00 +8°C° 1.6 mm 3 mps 732 mmHg 91%
    14:00 +8°C° 1.6 mm 2 mps 732 mmHg 94%
    15:00 +8°C° 1.6 mm 3 mps 731 mmHg 94%
    16:00 +8°C° 1.6 mm 3 mps 730 mmHg 95%
    17:00 +8°C° 1.6 mm 3 mps 729 mmHg 95%
    18:00 +7°C° 1.5 mm 3 mps 728 mmHg 95%
    19:00 +7°C° 1.5 mm 3 mps 728 mmHg 95%
    20:00 +7°C° 1.5 mm 3 mps 727 mmHg 95%
    21:00 +6°C° 1.6 mm 4 mps 726 mmHg 95%
    22:00 +5°C° 1.6 mm 4 mps 725 mmHg 95%
    23:00 +5°C° 1.6 mm 5 mps 725 mmHg 95%

    Day after tomorrow, 25 September, Tuesday

    Time Temperature Precipitation Wind Pressure Humidity
    00:00 +5°C° 1.6 mm 5 mps 724 mmHg 94%
    01:00 +5°C° 1.6 mm 6 mps 724 mmHg 93%
    02:00 +5°C° 1.6 mm 6 mps 724 mmHg 93%
    03:00 +5°C° 1.1 mm 6 mps 724 mmHg 92%
    04:00 +5°C° 1.1 mm 7 mps 725 mmHg 91%
    05:00 +5°C° 1.1 mm 7 mps 725 mmHg 90%
    06:00 +5°C° 0.9 mm 7 mps 726 mmHg 90%
    07:00 +5°C° 0.9 mm 7 mps 727 mmHg 89%
    08:00 +5°C° 0.9 mm 7 mps 727 mmHg 89%
    09:00 +4°C° 0.9 mm 7 mps 728 mmHg 88%
    10:00 +4°C° 0.9 mm 7 mps 729 mmHg 87%
    11:00 +4°C° 0.9 mm 8 mps 730 mmHg 87%
    12:00 +4°C° 0.5 mm 7 mps 731 mmHg 85%
    13:00 +5°C° 0.5 mm 7 mps 732 mmHg 83%
    14:00 +5°C° 0.5 mm 7 mps 733 mmHg 81%
    15:00 +5°C° 0.1 mm 7 mps 734 mmHg 80%
    16:00 +5°C° 0.1 mm 6 mps 735 mmHg 80%
    17:00 +4°C° 0.1 mm 6 mps 735 mmHg 79%
    18:00 +4°C° 0 mm 6 mps 736 mmHg 78%
    19:00 +3°C° 0 mm 6 mps 737 mmHg 77%
    20:00 +3°C° 0 mm 6 mps 738 mmHg 76%
    21:00 +2°C° 0 mm 5 mps 739 mmHg 75%
    22:00 +2°C° 0 mm 5 mps 740 mmHg 73%
    23:00 +1°C° 0 mm 5 mps 741 mmHg 72%

    26 September, Wednesday

    Time Temperature Precipitation Wind Pressure Humidity
    00:00 +1°C° 0 mm 5 mps 741 mmHg 73%
    01:00 0°C° 0 mm 4 mps 742 mmHg 73%
    02:00 0°C° 0 mm 4 mps 742 mmHg 74%
    03:00 0°C° 0 mm 4 mps 743 mmHg 76%
    04:00 0°C° 0 mm 4 mps 743 mmHg 78%
    05:00 +1°C° 0 mm 3 mps 744 mmHg 81%
    06:00 +1°C° 0 mm 4 mps 744 mmHg 80%
    07:00 +3°C° 0 mm 4 mps 745 mmHg 78%
    08:00 +4°C° 0 mm 4 mps 745 mmHg 77%
    09:00 +5°C° 0 mm 4 mps 745 mmHg 70%
    10:00 +7°C° 0 mm 4 mps 745 mmHg 63%
    11:00 +8°C° 0 mm 5 mps 745 mmHg 57%
    12:00 +9°C° 0 mm 5 mps 745 mmHg 56%
    13:00 +9°C° 0 mm 5 mps 744 mmHg 56%
    14:00 +10°C° 0 mm 5 mps 744 mmHg 55%
    15:00 +9°C° 0 mm 5 mps 744 mmHg 60%
    16:00 +8°C° 0 mm 4 mps 743 mmHg 65%
    17:00 +7°C° 0 mm 4 mps 742 mmHg 70%
    18:00 +7°C° 0.1 mm 5 mps 742 mmHg 73%
    19:00 +7°C° 0.1 mm 6 mps 741 mmHg 76%
    20:00 +7°C° 0.1 mm 6 mps 740 mmHg 80%
    21:00 +6°C° 0.5 mm 7 mps 739 mmHg 82%
    22:00 +6°C° 0.5 mm 7 mps 738 mmHg 84%
    23:00 +6°C° 0.5 mm 8 mps 737 mmHg 86%

    27 September, Thursday

    Time Temperature Precipitation Wind Pressure Humidity
    00:00 +5°C° 0.7 mm 8 mps 736 mmHg 86%
    01:00 +5°C° 0.7 mm 8 mps 735 mmHg 86%
    02:00 +5°C° 0.7 mm 8 mps 733 mmHg 86%
    03:00 +5°C° 0.3 mm 9 mps 732 mmHg 87%
    04:00 +5°C° 0.3 mm 9 mps 731 mmHg 87%
    05:00 +5°C° 0.3 mm 9 mps 730 mmHg 87%
    06:00 +5°C° 0.6 mm 8 mps 730 mmHg 86%
    07:00 +6°C° 0.6 mm 7 mps 730 mmHg 86%
    08:00 +6°C° 0.6 mm 7 mps 730 mmHg 86%
    09:00 +8°C° 0.1 mm 7 mps 730 mmHg 78%
    10:00 +9°C° 0.1 mm 8 mps 730 mmHg 70%
    11:00 +9°C° 0.1 mm 8 mps 730 mmHg 62%
    12:00 +9°C° 0.1 mm 8 mps 730 mmHg 61%
    13:00 +9°C° 0.1 mm 8 mps 730 mmHg 60%
    14:00 +9°C° 0.1 mm 8 mps 730 mmHg 58%
    15:00 +8°C° 0.1 mm 7 mps 731 mmHg 61%
    16:00 +8°C° 0.1 mm 6 mps 731 mmHg 64%
    17:00 +7°C° 0.1 mm 5 mps 731 mmHg 67%
    18:00 +7°C° 0 mm 5 mps 732 mmHg 68%
    19:00 +6°C° 0 mm 5 mps 732 mmHg 69%
    20:00 +6°C° 0 mm 5 mps 732 mmHg 71%
    21:00 +5°C° 0 mm 5 mps 733 mmHg 71%
    22:00 +5°C° 0 mm 5 mps 733 mmHg 72%
    23:00 +5°C° 0 mm 5 mps 733 mmHg 73%

    28 September, Friday

    Time Temperature Precipitation Wind Pressure Humidity
    00:00 +3°C° 0 mm 5 mps 733 mmHg 75%
    01:00 +4°C° 0 mm 4 mps 733 mmHg 77%
    02:00 +4°C° 0 mm 4 mps 734 mmHg 78%
    03:00 +4°C° 0 mm 4 mps 734 mmHg 81%
    04:00 +3°C° 0 mm 4 mps 734 mmHg 84%
    05:00 +3°C° 0 mm 4 mps 734 mmHg 86%
    06:00 +4°C° 0 mm 4 mps 734 mmHg 85%
    07:00 +5°C° 0 mm 4 mps 734 mmHg 83%
    08:00 +5°C° 0 mm 4 mps 734 mmHg 81%
    09:00 +6°C° 0.1 mm 5 mps 734 mmHg 77%
    10:00 +7°C° 0.1 mm 5 mps 734 mmHg 74%
    11:00 +8°C° 0.1 mm 5 mps 734 mmHg 70%
    12:00 +8°C° 0.2 mm 5 mps 734 mmHg 70%
    13:00 +8°C° 0.2 mm 6 mps 734 mmHg 69%
    14:00 +8°C° 0.2 mm 6 mps 735 mmHg 69%
    15:00 +7°C° 0.1 mm 5 mps 735 mmHg 70%
    16:00 +6°C° 0.1 mm 4 mps 736 mmHg 71%
    17:00 +5°C° 0.1 mm 3 mps 736 mmHg 72%
    18:00 +4°C° 0 mm 3 mps 737 mmHg 75%
    19:00 +3°C° 0 mm 3 mps 737 mmHg 77%
    20:00 +3°C° 0 mm 2 mps 738 mmHg 79%
    21:00 +3°C° 0 mm 2 mps 738 mmHg 79%
    22:00 +3°C° 0 mm 2 mps 739 mmHg 79%
    23:00 +2°C° 0 mm 3 mps 739 mmHg 79%
    Show more